Location: Drocourt
(49.0571°N, 1.7669°E)
Time: 03:29:30
(UTC+00:00)

Transit 4A - Pass Details

Date: 20 April 2024
Orbit: 871 x 971 km, 66.8° (Epoch: 19 May)

Event Time Altitude Azimuth Distance (km) Brightness Sun altitude
Rises 15:06:25 0° 267° (W) 3,511 11.8 35.3°
Reaches altitude 10° 15:09:33 10° 283° (WNW) 2,558 11.1 34.9°
Maximum altitude 15:14:01 22° 332° (NNW) 1,848 9.7 34.2°
Drops below altitude 10° 15:18:27 10° 22° (NNE) 2,535 9.9 33.5°
Sets 15:21:34 0° 38° (NE) 3,471 10.5 33.1°
